timestamp,wind_dir_avg,wind_spd_max_dir,wind_spd_avg,wind_spd_gust,battery_voltage,lat,long
2019-01-17 00:00:00+00:00,244.0,247.0,3.74,4.11,,47.59359,-54.27349
2019-01-17 00:10:00+00:00,239.0,241.0,4.5,5.43,,47.59359,-54.27349
2019-01-17 00:20:00+00:00,234.0,237.0,5.33,6.96,,47.59359,-54.27349
2019-01-17 00:30:00+00:00,240.0,246.0,4.74,5.69,,47.59359,-54.27349
2019-01-17 00:40:00+00:00,233.0,226.0,6.14,8.64,,47.59359,-54.27349
2019-01-17 00:50:00+00:00,244.0,242.0,5.99,6.83,,47.59359,-54.27349
2019-01-17 01:00:00+00:00,237.0,246.0,8.31,10.07,,47.59359,-54.27349
2019-01-17 01:10:00+00:00,235.0,242.0,9.14,10.02,,47.59359,-54.27349
2019-01-17 01:20:00+00:00,245.0,249.0,8.0,9.35,,47.59359,-54.27349
2019-01-17 01:30:00+00:00,236.0,237.0,9.05,10.92,,47.59359,-54.27349
2019-01-17 01:40:00+00:00,250.0,251.0,8.58,9.91,,47.59359,-54.27349
2019-01-17 01:50:00+00:00,240.0,236.0,9.42,11.06,,47.59359,-54.27349
2019-01-17 02:00:00+00:00,237.0,229.0,8.02,9.42,,47.59359,-54.27349
2019-01-17 02:10:00+00:00,247.0,244.0,7.79,8.98,,47.59359,-54.27349
2019-01-17 02:20:00+00:00,237.0,243.0,7.26,8.23,,47.59359,-54.27349
2019-01-17 02:30:00+00:00,242.0,246.0,7.13,8.24,,47.59359,-54.27349
2019-01-17 02:40:00+00:00,238.0,239.0,8.07,9.46,,47.59359,-54.27349
2019-01-17 02:50:00+00:00,237.0,234.0,7.53,9.06,,47.59359,-54.27349
2019-01-17 03:00:00+00:00,236.0,229.0,8.02,9.83,,47.59359,-54.27349
2019-01-17 03:10:00+00:00,238.0,240.0,7.76,9.18,,47.59359,-54.27349
2019-01-17 03:20:00+00:00,229.0,222.0,7.62,8.76,,47.59359,-54.27349
2019-01-17 03:30:00+00:00,237.0,238.0,8.12,10.34,,47.59359,-54.27349
2019-01-17 03:40:00+00:00,236.0,237.0,10.45,11.52,,47.59359,-54.27349
2019-01-17 03:50:00+00:00,242.0,232.0,8.32,9.42,,47.59359,-54.27349
2019-01-17 04:00:00+00:00,239.0,249.0,9.4,10.97,,47.59359,-54.27349
2019-01-17 04:10:00+00:00,239.0,238.0,9.74,11.2,,47.59359,-54.27349
2019-01-17 04:20:00+00:00,237.0,236.0,9.84,12.33,,47.59359,-54.27349
2019-01-17 04:30:00+00:00,240.0,245.0,10.59,12.88,,47.59359,-54.27349
2019-01-17 04:40:00+00:00,241.0,242.0,10.54,12.93,,47.59359,-54.27349
2019-01-17 04:50:00+00:00,237.0,234.0,8.91,10.64,,47.59359,-54.27349
2019-01-17 05:00:00+00:00,237.0,241.0,10.86,12.48,,47.59359,-54.27349
2019-01-17 05:10:00+00:00,242.0,252.0,9.1,10.64,,47.59359,-54.27349
2019-01-17 05:20:00+00:00,253.0,255.0,11.55,13.46,,47.59359,-54.27349
2019-01-17 05:30:00+00:00,237.0,231.0,9.51,11.32,,47.59359,-54.27349
2019-01-17 05:40:00+00:00,241.0,243.0,8.97,10.99,,47.59359,-54.27349
2019-01-17 05:50:00+00:00,232.0,238.0,8.67,10.47,,47.59359,-54.27349
2019-01-17 06:00:00+00:00,237.0,243.0,9.07,10.59,,47.59359,-54.27349
2019-01-17 06:10:00+00:00,241.0,243.0,9.25,10.79,,47.59359,-54.27349
2019-01-17 06:20:00+00:00,241.0,247.0,7.52,9.28,,47.59359,-54.27349
2019-01-17 06:30:00+00:00,245.0,240.0,7.75,9.64,,47.59359,-54.27349
2019-01-17 06:40:00+00:00,234.0,230.0,6.8,8.24,,47.59359,-54.27349
2019-01-17 06:50:00+00:00,232.0,234.0,9.64,10.92,,47.59359,-54.27349
2019-01-17 07:00:00+00:00,224.0,221.0,11.26,13.24,,47.59359,-54.27349
2019-01-17 07:10:00+00:00,225.0,228.0,10.59,11.92,,47.59359,-54.27349
2019-01-17 07:20:00+00:00,229.0,230.0,9.82,11.33,,47.59359,-54.27349
2019-01-17 07:30:00+00:00,244.0,240.0,8.87,10.47,,47.59359,-54.27349
2019-01-17 07:40:00+00:00,236.0,242.0,8.25,9.46,,47.59359,-54.27349
2019-01-17 07:50:00+00:00,229.0,232.0,8.05,9.62,,47.59359,-54.27349
2019-01-17 08:00:00+00:00,221.0,220.0,9.27,10.16,,47.59359,-54.27349
2019-01-17 08:10:00+00:00,226.0,226.0,8.64,10.21,,47.59359,-54.27349
2019-01-17 08:20:00+00:00,222.0,219.0,8.28,10.29,,47.59359,-54.27349
2019-01-17 08:30:00+00:00,215.0,213.0,10.37,11.52,,47.59359,-54.27349
2019-01-17 08:40:00+00:00,221.0,221.0,9.69,11.74,,47.59359,-54.27349
2019-01-17 08:50:00+00:00,214.0,214.0,9.34,10.57,,47.59359,-54.27349
2019-01-17 09:00:00+00:00,209.0,207.0,10.65,12.82,,47.59359,-54.27349
2019-01-17 09:10:00+00:00,212.0,214.0,9.18,10.3,,47.59359,-54.27349
2019-01-17 09:20:00+00:00,214.0,220.0,9.56,11.07,,47.59359,-54.27349
2019-01-17 09:30:00+00:00,216.0,217.0,9.66,10.97,,47.59359,-54.27349
2019-01-17 09:40:00+00:00,221.0,220.0,9.24,10.46,,47.59359,-54.27349
2019-01-17 09:50:00+00:00,217.0,219.0,9.55,10.98,,47.59359,-54.27349
2019-01-17 10:00:00+00:00,212.0,214.0,8.86,10.45,,47.59359,-54.27349
2019-01-17 10:10:00+00:00,199.0,200.0,8.26,9.31,,47.59359,-54.27349
2019-01-17 10:20:00+00:00,188.0,186.0,8.54,9.28,,47.59359,-54.27349
2019-01-17 10:30:00+00:00,181.0,181.0,8.21,9.05,,47.59359,-54.27349
2019-01-17 10:40:00+00:00,198.0,199.0,8.01,8.91,,47.59359,-54.27349
2019-01-17 10:50:00+00:00,185.0,198.0,8.4,10.37,,47.59359,-54.27349
2019-01-17 11:00:00+00:00,190.0,193.0,7.84,8.97,,47.59359,-54.27349
2019-01-17 11:10:00+00:00,202.0,206.0,8.16,9.31,,47.59359,-54.27349
2019-01-17 11:20:00+00:00,202.0,203.0,9.16,10.35,,47.59359,-54.27349
2019-01-17 11:30:00+00:00,199.0,197.0,9.55,10.82,,47.59359,-54.27349
2019-01-17 11:40:00+00:00,188.0,185.0,11.31,12.72,,47.59359,-54.27349
2019-01-17 11:50:00+00:00,189.0,192.0,11.91,12.99,,47.59359,-54.27349
2019-01-17 12:00:00+00:00,189.0,197.0,10.14,12.48,,47.59359,-54.27349
2019-01-17 12:10:00+00:00,194.0,192.0,9.99,12.12,,47.59359,-54.27349
2019-01-17 12:20:00+00:00,197.0,205.0,11.36,12.93,,47.59359,-54.27349
2019-01-17 12:30:00+00:00,191.0,192.0,10.64,11.77,,47.59359,-54.27349
2019-01-17 12:40:00+00:00,191.0,201.0,11.47,14.34,,47.59359,-54.27349
2019-01-17 12:50:00+00:00,188.0,185.0,11.02,13.13,,47.59359,-54.27349
2019-01-17 13:00:00+00:00,193.0,199.0,12.25,13.66,,47.59359,-54.27349
2019-01-17 13:10:00+00:00,203.0,209.0,13.06,15.81,,47.59359,-54.27349
2019-01-17 13:20:00+00:00,205.0,205.0,14.29,15.79,,47.59359,-54.27349
2019-01-17 13:30:00+00:00,214.0,220.0,13.57,15.34,,47.59359,-54.27349
2019-01-17 13:40:00+00:00,212.0,210.0,13.67,16.32,,47.59359,-54.27349
2019-01-17 13:50:00+00:00,216.0,216.0,14.77,17.94,,47.59359,-54.27349
2019-01-17 14:00:00+00:00,215.0,216.0,17.57,20.32,,47.59359,-54.27349
2019-01-17 14:10:00+00:00,221.0,224.0,17.22,19.79,,47.59359,-54.27349
2019-01-17 14:20:00+00:00,217.0,214.0,20.13,23.77,,47.59359,-54.27349
2019-01-17 14:30:00+00:00,217.0,216.0,17.18,19.9,,47.59359,-54.27349
2019-01-17 14:40:00+00:00,222.0,220.0,18.16,21.79,,47.59359,-54.27349
2019-01-17 14:50:00+00:00,230.0,232.0,15.16,17.79,,47.59359,-54.27349
2019-01-17 15:00:00+00:00,233.0,239.0,14.65,17.89,,47.59359,-54.27349
2019-01-17 15:10:00+00:00,244.0,249.0,12.76,15.04,,47.59359,-54.27349
2019-01-17 15:20:00+00:00,246.0,241.0,12.61,15.48,,47.59359,-54.27349
2019-01-17 15:30:00+00:00,248.0,248.0,12.98,14.83,,47.59359,-54.27349
2019-01-17 15:40:00+00:00,279.0,282.0,12.52,14.12,,47.59359,-54.27349
2019-01-17 15:50:00+00:00,278.0,280.0,12.9,14.22,,47.59359,-54.27349
2019-01-17 16:00:00+00:00,260.0,260.0,13.76,15.79,,47.59359,-54.27349
2019-01-17 16:10:00+00:00,267.0,258.0,14.96,17.22,,47.59359,-54.27349
2019-01-17 16:20:00+00:00,265.0,265.0,17.0,21.03,,47.59359,-54.27349
2019-01-17 16:30:00+00:00,283.0,292.0,14.75,17.71,,47.59359,-54.27349
2019-01-17 16:40:00+00:00,285.0,291.0,13.62,16.7,,47.59359,-54.27349
2019-01-17 16:50:00+00:00,277.0,279.0,14.61,16.44,,47.59359,-54.27349
2019-01-17 17:00:00+00:00,273.0,265.0,13.8,16.8,,47.59359,-54.27349
2019-01-17 17:10:00+00:00,276.0,277.0,16.1,18.33,,47.59359,-54.27349
2019-01-17 17:20:00+00:00,276.0,277.0,14.49,15.94,,47.59359,-54.27349
2019-01-17 17:30:00+00:00,274.0,276.0,12.09,13.6,,47.59359,-54.27349
2019-01-17 17:40:00+00:00,278.0,280.0,13.76,15.48,,47.59359,-54.27349
2019-01-17 17:50:00+00:00,273.0,274.0,11.44,13.79,,47.59359,-54.27349
2019-01-17 18:00:00+00:00,270.0,268.0,14.69,17.04,,47.59359,-54.27349
2019-01-17 18:10:00+00:00,278.0,290.0,14.14,17.71,,47.59359,-54.27349
2019-01-17 18:20:00+00:00,266.0,264.0,16.64,20.02,,47.59359,-54.27349
2019-01-17 18:30:00+00:00,268.0,270.0,16.09,17.83,,47.59359,-54.27349
2019-01-17 18:40:00+00:00,282.0,277.0,14.88,17.29,,47.59359,-54.27349
2019-01-17 18:50:00+00:00,264.0,269.0,13.36,15.35,,47.59359,-54.27349
2019-01-17 19:00:00+00:00,271.0,278.0,11.93,13.82,,47.59359,-54.27349
2019-01-17 19:10:00+00:00,285.0,289.0,14.4,16.29,,47.59359,-54.27349
2019-01-17 19:20:00+00:00,274.0,279.0,12.59,15.22,,47.59359,-54.27349
2019-01-17 19:30:00+00:00,276.0,275.0,12.91,15.14,,47.59359,-54.27349
2019-01-17 19:40:00+00:00,282.0,295.0,12.98,15.43,,47.59359,-54.27349
2019-01-17 19:50:00+00:00,279.0,281.0,14.05,16.29,,47.59359,-54.27349
2019-01-17 20:00:00+00:00,281.0,277.0,11.04,12.78,,47.59359,-54.27349
2019-01-17 20:10:00+00:00,271.0,272.0,8.82,10.99,,47.59359,-54.27349
2019-01-17 20:20:00+00:00,275.0,281.0,11.23,12.63,,47.59359,-54.27349
2019-01-17 20:30:00+00:00,269.0,271.0,12.98,16.23,,47.59359,-54.27349
2019-01-17 20:40:00+00:00,280.0,282.0,12.07,13.6,,47.59359,-54.27349
2019-01-17 20:50:00+00:00,281.0,275.0,9.88,11.53,,47.59359,-54.27349
2019-01-17 21:00:00+00:00,277.0,275.0,13.41,14.55,,47.59359,-54.27349
2019-01-17 21:10:00+00:00,274.0,271.0,11.72,13.32,,47.59359,-54.27349
2019-01-17 21:20:00+00:00,285.0,283.0,10.51,12.65,,47.59359,-54.27349
2019-01-17 21:30:00+00:00,276.0,279.0,10.6,12.88,,47.59359,-54.27349
2019-01-17 21:40:00+00:00,283.0,282.0,9.7,10.88,,47.59359,-54.27349
2019-01-17 21:50:00+00:00,297.0,295.0,6.91,8.12,,47.59359,-54.27349
2019-01-17 22:00:00+00:00,300.0,307.0,8.86,10.74,,47.59359,-54.27349
2019-01-17 22:10:00+00:00,288.0,286.0,7.51,8.9,,47.59359,-54.27349
2019-01-17 22:20:00+00:00,299.0,294.0,6.88,9.44,,47.59359,-54.27349
2019-01-17 22:30:00+00:00,296.0,296.0,7.2,8.67,,47.59359,-54.27349
2019-01-17 22:40:00+00:00,304.0,310.0,8.72,10.54,,47.59359,-54.27349
2019-01-17 22:50:00+00:00,286.0,289.0,7.69,9.5,,47.59359,-54.27349
2019-01-17 23:00:00+00:00,309.0,312.0,9.09,10.37,,47.59359,-54.27349
2019-01-17 23:10:00+00:00,325.0,323.0,7.66,8.84,,47.59359,-54.27349
2019-01-17 23:20:00+00:00,318.0,325.0,7.51,9.65,,47.59359,-54.27349
2019-01-17 23:30:00+00:00,321.0,327.0,8.4,9.97,,47.59359,-54.27349
2019-01-17 23:40:00+00:00,303.0,307.0,7.27,9.24,,47.59359,-54.27349
2019-01-17 23:50:00+00:00,312.0,307.0,7.21,9.62,,47.59359,-54.27349
